Regional Weather Roundup
Issued by NWS Sterling, VA

Home | Current Version | Previous Version | Text Only | Print | Product List | Glossary Off
Versions: 1 2 3 4 5 6 7 8 9 10 11 12 13 14 15 16 17 18 19 20 21 22 23 24 25 26 27

000
ASUS41 KLWX 151510
RWRLWX

REGIONAL WEATHER ROUNDUP
NATIONAL WEATHER SERVICE BALTIMORE MD/WASHINGTON DC
1100 AM EDT TUE AUG 15 2017

Note: "FAIR" indicates few or no clouds below 12,000 feet
with no significant weather and/or obstructions to visibility.
 TC=TEMPERATURE CELSIUS

 * =Non NWS site. Station does not report precipitation (e.g. rain,
    snow, etc.), thunder, or fog.

DCZ001-MDZ009-015-VAZ040>042-051-053>054-151600-
WASHINGTON METRO

CITY           SKY/WX    TMP DP  RH WIND       PRES   REMARKS
WASHINGTON NAT LGT RAIN  77  76  96 S7        29.91S
DULLES         LGT RAIN  70  70 100 NW3       29.93R FOG
FT BELVOIR     LGT RAIN  75  73  94 CALM      29.91R FOG
QUANTICO       RAIN      76  76 100 W5        29.92S FOG
COLLEGE PARK*  CLOUDY    74  73  95 CALM      29.90F
LEESBURG*      LGT RAIN  70  70 100 N3        29.94S
MANASSAS*      RAIN      72  71  97 CALM      29.93R FOG
GAITHERSBURG*  LGT RAIN  70  69  97 W6        29.94R FOG

$$

MDZ006>007-011-014-151600-
BALTIMORE METRO

CITY           SKY/WX    TMP DP  RH WIND       PRES   REMARKS
BWI AIRPORT    LGT RAIN  75  75 100 CALM      29.90F FOG
MD SCIENCE CTR   N/A     76  75  97 MISG      29.91S
MARTIN STATE   RAIN      75  75 100 SE5       29.92S
ANNAPOLIS      LGT RAIN  78  78 100 SE7       29.90S FOG
FORT MEADE*    CLOUDY    73  72  94 CALM      29.93S

$$

MDZ012-015-019>023-151600-
MARYLAND EASTERN SHORE

CITY           SKY/WX    TMP DP  RH WIND       PRES   REMARKS
OCEAN CITY     PTSUNNY   79  75  87 SE6       29.91F
SALISBURY      CLOUDY    81  76  84 S5        29.90F
BAY BRIDGE AP* LGT RAIN  75  75 100 SE5       29.91S FOG
CAMBRIDGE*     PTSUNNY   77  75  94 CALM      29.90F
EASTON*        LGT RAIN  77  75  94 SE3       29.95S

$$

MDZ017>025-151600-
SOUTHERN MARYLAND

CITY           SKY/WX    TMP DP  RH WIND       PRES   REMARKS
PATUXENT RIVER CLOUDY    79  76  90 SW3       29.89F
ST INIGOES     CLOUDY    77  75  93 SW5       29.89F
LEONARDTOWN*   CLOUDY    77  73  88 CALM      29.91F

$$

MDZ003>005-151600-
NORTH CENTRAL MARYLAND

CITY           SKY/WX    TMP DP  RH WIND       PRES   REMARKS
FREDERICK*     CLOUDY    72  72 100 CALM      29.95F FOG
HAGERSTOWN APT CLOUDY    72  69  90 CALM      29.93F FOG
WESTMINSTER*   CLOUDY    72  70  94 CALM      29.94F FOG

$$

MDZ501>502-151600-
WESTERN MARYLAND

CITY           SKY/WX    TMP DP  RH WIND       PRES   REMARKS
OAKLAND*       MOSUNNY   68  63  83 W3        29.99S
CUMBERLAND*    CLOUDY    70  68  94 S3        29.98S

$$

VAZ025>031-151600-
SHENANDOAH VALLEY

CITY           SKY/WX    TMP DP  RH WIND       PRES   REMARKS
WINCHESTER*    LGT RAIN  68  68 100 CALM      29.94S
FRONT ROYAL*   CLOUDY    70  68  94 CALM      29.93S
LURAY*         LGT RAIN  72  70  94 CALM      29.95S
NEW MARKET*    CLOUDY    70  68  95 CALM      29.94F
STAUNTON*      CLOUDY    70  68  94 CALM      29.97S
WAYNESBORO*    CLOUDY    71  71 100 CALM      29.97R

$$

WVZ021-048>050-054>055-151600-
EASTERN WEST VIRGINIA PANHANDLE

CITY           SKY/WX    TMP DP  RH WIND       PRES   REMARKS
MARTINSBURG    CLOUDY    70  68  93 CALM      29.93S FOG
PETERSBURG*    CLOUDY    73  70  91 CALM      29.95S

$$

VAZ036>039-050-151600-
CENTRAL FOOTHILLS

CITY           SKY/WX    TMP DP  RH WIND       PRES   REMARKS
CHARLOTTESVILL LGT RAIN  73  72  96 CALM      29.93F FOG
CULPEPER*      HVY RAIN  73  73  99 CALM      29.93F
ORANGE*        HVY RAIN  72  70  94 CALM      29.92F
GORDONSVILLE*  CLOUDY    73  73 100 CALM      29.92F
WARRENTON*     HVY RAIN  74  70  89 CALM      29.92S

$$

VAZ055>057-151600-
NORTH AND CENTRAL PIEDMONT

CITY           SKY/WX    TMP DP  RH WIND       PRES   REMARKS
FREDERICKSBRG* CLOUDY    76  76 100 CALM      29.90F
STAFFORD*      CLOUDY    75  75 100 NW5       29.95F

$$

NCZ024-NYZ072-PAZ021-071-VAZ022-071-151600-
OTHER REGIONAL OBSERVATIONS

CITY           SKY/WX    TMP DP  RH WIND       PRES   REMARKS
NEW YORK CITY  CLOUDY    73  70  90 S3        29.96S FOG
PHILADELPHIA   LGT RAIN  74  71  91 E5        29.92S FOG
PITTSBURGH     PTSUNNY   77  67  71 VRB3      29.93S
ROANOKE        CLOUDY    74  71  91 CALM      29.98R
RICHMOND       CLOUDY    79  75  87 S3        29.90F
RALEIGH        PTSUNNY   84  78  82 SW5       29.92S HX  95

$$

ANZ530>537-151600-
MARINE OBSERVATIONS

STATION/POSITION TIME  TEMP    WIND        PRES
                       AIR SEA DIR/SP/G
                 (UTC) (F)     (DEG/KT/KT) (MB)
THOMAS PT LIGHT  1500   76 79  130/  7/  7   N/A
BALT KEY BRIDGE  1436   75     140/  5/  6 1012.4F
COVE POINT       1436   78     300/  2/  3 1013.2F
LEWISETTA        1436   79 81  230/  3/  3 1012.6R
SOLOMONS ISLAND  1436   79 80  280/  2/  5   N/A
PINEY POINT      1448          220/  1/  2   N/A

$$





USA.gov is the U.S. government's official web portal to all federal, state and local government web resources and services.